Home   Weather   Anchorage   Past weeks

Flag for USA Past Weather in Anchorage, Alaska, USA — Yesterday and Last 2 Weeks

Now
48 °F

Overcast.


Feels Like: 47 °F
Forecast: 45 / 55 °F
Wind: 3 mph from Northwest

Location: Lake Hood Seaplane

Current Time: Apr 23, 2017 at 11:48:19 am

Latest Report: Apr 23, 2017 at 10:53 am


Visibility: 10 mi

Pressure: 29.72 "Hg

Humidity: 41%

Dew Point: 25 °F

Location of AnchorageLocation

Past Weather in Anchorage — Graph

°F

Anchorage Temperature Yesterday

Maximum temperature yesterday: 54 °F (at 6:53 pm)
Minimum temperature yesterday: 31 °F (at 5:53 am)
Average temperature yesterday: 44 °F

High & Low Weather Summary for the Past Weeks

 TemperatureHumidityPressure
High54 °F (Apr 22, 6:53 pm)100% (Apr 11, 4:53 am)30.37 "Hg (Apr 11, 4:53 am)
Low25 °F (Apr 19, 6:53 am)26% (Apr 14, 7:53 pm)29.44 "Hg (Apr 8, 9:53 am)
Average39 °F62%30.01 "Hg
* Reported Apr 8 9:53 am — Apr 23 9:53 am, Anchorage, Weather by CustomWeather, © 2017

Note: Actual official high and low records may vary slightly from our data, if they occured in-between our weather recording intervals... More about our weather records

Advertising

Anchorage Weather History for the Previous 24 Hours

Scroll right to see more
 ConditionsComfort  
Time TempWeatherWind HumidityBarometerVisibility
9:53 am
Sun, Apr 23
45 °FOvercast.3 mph56%29.72 "Hg10 mi
8:53 am42 °FMostly cloudy.No wind65%29.72 "Hg10 mi
7:53 am41 °FMostly cloudy.No wind62%29.72 "Hg10 mi
6:53 am38 °FOvercast.3 mph76%29.72 "Hg10 mi
5:53 am40 °FOvercast.No wind68%29.74 "Hg10 mi
4:53 am39 °FOvercast.3 mph67%29.74 "Hg10 mi
3:53 am40 °FMostly cloudy.3 mph65%29.75 "Hg10 mi
2:53 am39 °FClear.No wind70%29.76 "Hg10 mi
1:53 am40 °FPassing clouds.No wind68%29.76 "Hg10 mi
12:53 am47 °FOvercast.3 mph44%29.76 "Hg10 mi
11:53 pm
Sat, Apr 22
45 °FPassing clouds.3 mph49%29.77 "Hg10 mi
10:53 pm47 °FClear.5 mph44%29.78 "Hg10 mi
9:53 pm49 °FClear.5 mph41%29.78 "Hg10 mi
8:53 pm50 °FSunny.3 mph41%29.79 "Hg10 mi
7:53 pm52 °FSunny.6 mph37%29.80 "Hg10 mi
6:53 pm54 °FSunny.5 mph31%29.82 "Hg10 mi
5:53 pm53 °FSunny.6 mph34%29.83 "Hg10 mi
4:53 pm53 °FSunny.6 mph32%29.86 "Hg10 mi
3:53 pm52 °FSunny.8 mph34%29.88 "Hg10 mi
2:53 pm50 °FSunny.7 mph35%29.91 "Hg10 mi
1:53 pm50 °FSunny.10 mph36%29.93 "Hg10 mi
12:53 pm49 °FSunny.9 mph36%29.97 "Hg10 mi
11:53 am47 °FSunny.12 mph37%29.99 "Hg10 mi
Weather by CustomWeather, © 2017

See weather overviewHow to use our weather pages